Weather History for Henry Tift Myers AP, Tifton,, GA

Change the Weather History Date:

Wednesday, February 19, 2014

  Actual Average Record
Temperature  
Mean Temperature 62 °F -  
Max Temperature 78 °F 61 °F 78 °F (2014)
Min Temperature 46 °F 42 °F 46 °F (2014)
Degree Days  
Heating Degree Days 4    
Growing Degree Days 12 (Base 50)    
Moisture  
Dew Point 47 °F    
Average Humidity 57    
Maximum Humidity 82    
Minimum Humidity 36    
Precipitation  
Precipitation 0.00 in - - ()
Sea Level Pressure  
Sea Level Pressure 30.11 in    
Wind  
Wind Speed 5 mph (SW)    
Max Wind Speed 14 mph    
Max Gust Speed 22 mph    
Visibility 10 miles    
Events      
Averages and records for this station are not official NWS values.
T = Trace of Precipitation, MM = Missing Value Source: NWS Daily Summary

Daily Weather History Graph

Daily Weather History Graph

Search for Another Location

Airport:

Trip Planner

Search our weather history database for the weather conditions in past years. The results will help you decide how hot, cold, wet, or windy it might be!

Date:

Astronomy

Feb. 19, 2014 Rise Set
Actual Time 7:11 AM EST 6:24 PM EST
Civil Twilight 6:46 AM EST 6:49 PM EST
Nautical Twilight 6:18 AM EST 7:17 PM EST
Astronomical Twilight 5:50 AM EST 7:45 PM EST
Moon 10:55 PM EST (2/19) 9:36 AM EST (2/19)
Length of Visible Light 12h 02m
Length of Day
11h 12m
Waning Gibbous, 80% of the Moon is Illuminated
Feb 19
Waning Gibbous
Feb 22
Last Quarter
Mar 1
New
Mar 8
First Quarter
Mar 16
Full

Hourly Weather History & Observations

Time (EST) Temp. Dew Point Humidity Pressure Visibility Wind Dir Wind Speed Gust Speed Precip Events Conditions
12:55 AM 61.5 °F 47.5 °F 60% 30.12 in 10.0 mi SW 6.9 mph - N/A   Clear
1:15 AM 61.0 °F 42.4 °F 51% 30.11 in 10.0 mi SSW 5.8 mph - N/A   Clear
1:35 AM 61.0 °F 39.4 °F 45% 30.11 in 10.0 mi SW 6.9 mph - N/A   Clear
1:55 AM 60.6 °F 38.3 °F 44% 30.11 in 10.0 mi WSW 4.6 mph - N/A   Clear
2:15 AM 60.3 °F 37.9 °F 44% 30.11 in 10.0 mi West 3.5 mph - N/A   Clear
2:35 AM 59.4 °F 39.0 °F 47% 30.12 in 10.0 mi WNW 4.6 mph - N/A   Clear
2:55 AM 58.3 °F 39.7 °F 50% 30.12 in 10.0 mi WNW 6.9 mph - N/A   Clear
3:15 AM 57.4 °F 40.1 °F 53% 30.12 in 10.0 mi West 3.5 mph - N/A   Clear
3:35 AM 57.4 °F 40.6 °F 54% 30.12 in 10.0 mi West 3.5 mph - N/A   Clear
3:55 AM 57.0 °F 41.0 °F 55% 30.12 in 10.0 mi Calm Calm - N/A   Clear
4:15 AM 56.1 °F 41.0 °F 57% 30.11 in 10.0 mi Calm Calm - N/A   Clear
4:35 AM 52.9 °F 41.7 °F 66% 30.11 in 10.0 mi SSE 3.5 mph - N/A   Clear
4:55 AM 50.2 °F 42.8 °F 76% 30.11 in 10.0 mi Calm Calm - N/A   Clear
5:15 AM 50.4 °F 42.1 °F 73% 30.11 in 10.0 mi Calm Calm - N/A   Clear
5:35 AM 48.4 °F 42.1 °F 79% 30.11 in - SSE 3.5 mph - N/A   Unknown
5:55 AM 47.3 °F 42.1 °F 82% 30.10 in 10.0 mi SSE 4.6 mph - N/A   Clear
6:15 AM 48.9 °F 41.2 °F 75% 30.11 in 10.0 mi Calm Calm - N/A   Clear
6:35 AM 48.9 °F 40.3 °F 72% 30.12 in 10.0 mi Calm Calm - N/A   Clear
6:55 AM 46.8 °F 39.6 °F 76% 30.12 in 10.0 mi South 4.6 mph - N/A   Clear
7:15 AM 47.8 °F 39.2 °F 72% 30.13 in 10.0 mi Calm Calm - N/A   Clear
7:35 AM 50.4 °F 38.1 °F 63% 30.14 in 10.0 mi Calm Calm - N/A   Clear
7:55 AM 48.2 °F 39.6 °F 72% 30.16 in 10.0 mi Calm Calm - N/A   Clear
8:15 AM 50.4 °F 42.1 °F 73% 30.17 in 10.0 mi Calm Calm - N/A   Clear
8:35 AM 53.6 °F 40.3 °F 61% 30.16 in 10.0 mi South 4.6 mph - N/A   Clear
8:55 AM 56.1 °F 38.7 °F 52% 30.16 in 10.0 mi SSW 3.5 mph - N/A   Clear
9:15 AM 58.3 °F 41.0 °F 53% 30.16 in 10.0 mi WSW 5.8 mph - N/A   Clear
9:35 AM 59.5 °F 45.7 °F 60% 30.16 in 10.0 mi WSW 8.1 mph - N/A   Clear
9:55 AM 61.5 °F 48.4 °F 62% 30.17 in 10.0 mi SW 6.9 mph - N/A   Clear
10:15 AM 63.3 °F 49.3 °F 60% 30.17 in 10.0 mi SW 5.8 mph - N/A   Clear
10:35 AM 64.8 °F 49.1 °F 57% 30.16 in 10.0 mi SW 6.9 mph - N/A   Clear
10:55 AM 66.4 °F 48.9 °F 53% 30.16 in 10.0 mi WSW 5.8 mph - N/A   Clear
11:15 AM 68.4 °F 49.3 °F 50% 30.16 in 10.0 mi SW 8.1 mph - N/A   Clear
11:35 AM 69.8 °F 49.1 °F 48% 30.16 in 10.0 mi West 9.2 mph - N/A   Clear
11:55 AM 70.9 °F 49.5 °F 47% 30.15 in 10.0 mi West 8.1 mph - N/A   Clear
12:15 PM 72.0 °F 49.5 °F 45% 30.14 in 10.0 mi WSW 9.2 mph - N/A   Clear
12:35 PM 73.0 °F 48.7 °F 42% 30.13 in 10.0 mi WSW 9.2 mph - N/A   Clear
12:55 PM 74.1 °F 49.1 °F 41% 30.11 in 10.0 mi West 10.4 mph - N/A   Clear
1:15 PM 74.5 °F 50.0 °F 42% 30.10 in 10.0 mi WSW 11.5 mph 16.1 mph N/A   Clear
1:35 PM 75.4 °F 51.1 °F 42% 30.09 in 10.0 mi WSW 9.2 mph - N/A   Clear
1:55 PM 75.6 °F 51.8 °F 43% 30.09 in 10.0 mi WSW 10.4 mph 16.1 mph N/A   Clear
2:15 PM 75.7 °F 52.5 °F 44% 30.08 in 10.0 mi WSW 12.7 mph 21.9 mph N/A   Clear
2:35 PM 76.1 °F 52.5 °F 44% 30.07 in 10.0 mi WSW 12.7 mph 18.4 mph N/A   Clear
2:55 PM 76.3 °F 52.5 °F 43% 30.07 in 10.0 mi SW 9.2 mph 20.7 mph N/A   Clear
3:15 PM 76.3 °F 52.9 °F 44% 30.06 in 10.0 mi WSW 12.7 mph 17.3 mph N/A   Clear
3:35 PM 76.8 °F 51.3 °F 41% 30.06 in 10.0 mi WSW 13.8 mph 17.3 mph N/A   Clear
3:55 PM 77.0 °F 48.0 °F 36% 30.06 in 10.0 mi WSW 10.4 mph 16.1 mph N/A   Clear
4:15 PM 77.0 °F 49.1 °F 37% 30.06 in 10.0 mi West 9.2 mph - N/A   Clear
4:35 PM 76.8 °F 50.0 °F 39% 30.06 in 10.0 mi West 4.6 mph - N/A   Clear
4:55 PM 76.1 °F 50.2 °F 40% 30.06 in 10.0 mi WNW 9.2 mph - N/A   Clear
5:15 PM 75.6 °F 49.8 °F 40% 30.07 in 10.0 mi WNW 5.8 mph - N/A   Clear
5:35 PM 75.2 °F 49.3 °F 40% 30.07 in 10.0 mi WNW 6.9 mph - N/A   Clear
5:55 PM 74.1 °F 48.4 °F 40% 30.06 in 10.0 mi WNW 3.5 mph - N/A   Clear
6:15 PM 73.0 °F 48.4 °F 42% 30.07 in 10.0 mi Calm Calm - N/A   Clear
6:35 PM 70.0 °F 49.6 °F 48% 30.07 in 10.0 mi Calm Calm - N/A   Clear
6:55 PM 67.1 °F 50.2 °F 55% 30.08 in 10.0 mi Calm Calm - N/A   Clear
7:15 PM 64.9 °F 50.7 °F 60% 30.08 in 10.0 mi Calm Calm - N/A   Clear
7:35 PM 62.2 °F 51.3 °F 67% 30.08 in 10.0 mi Calm Calm - N/A   Clear
7:55 PM 61.2 °F 51.6 °F 71% 30.08 in 10.0 mi Calm Calm - N/A   Clear
8:15 PM 60.4 °F 51.8 °F 73% 30.08 in 10.0 mi SSE 3.5 mph - N/A   Clear
8:35 PM 61.0 °F 51.8 °F 72% 30.09 in 10.0 mi South 3.5 mph - N/A   Clear
8:55 PM 61.5 °F 52.2 °F 71% 30.09 in 10.0 mi South 4.6 mph - N/A   Clear
9:15 PM 63.5 °F 53.6 °F 70% 30.09 in 10.0 mi South 4.6 mph - N/A   Clear
9:35 PM 64.9 °F 54.5 °F 69% 30.09 in 10.0 mi SSW 4.6 mph - N/A   Clear
9:55 PM 65.1 °F 54.7 °F 69% 30.10 in 10.0 mi SSW 4.6 mph - N/A   Clear
10:15 PM 64.6 °F 54.7 °F 70% 30.11 in 10.0 mi SSW 4.6 mph - N/A   Clear
10:35 PM 64.2 °F 54.9 °F 72% 30.11 in 10.0 mi SSW 4.6 mph - N/A   Clear
10:55 PM 63.3 °F 55.2 °F 75% 30.11 in 10.0 mi SSW 4.6 mph - N/A   Clear
11:35 PM 61.5 °F 55.0 °F 79% 30.10 in 10.0 mi South 4.6 mph - N/A   Clear
11:55 PM 60.8 °F 55.2 °F 82% 30.10 in 10.0 mi South 4.6 mph - N/A   Clear